This is the latest recevied weather packets stored in our database for station/object HB3YKO-13. If no packets are shown the sender has not sent any weather packets the latest 10 day(s).
| Time | Temp. | Humidity | Pressure | Rain* | Wind** | Luminosity | Snow |
|---|---|---|---|---|---|---|---|
| 1777728292 | 4.44° C | 32% | 0 hPa | 0 mm | - | - | - |
| 1777727992 | 6.67° C | 32% | 0 hPa | 0 mm | - | - | - |
| 1777727692 | -17.78° C | 100% | 0 hPa | 0 mm | - | - | - |
| 1777727392 | 3.89° C | 33% | 0 hPa | 0 mm | - | - | - |
| 1777727092 | 4.44° C | 35% | 0 hPa | 0 mm | - | - | - |
| 1777726792 | 4.44° C | 34% | 0 hPa | 0 mm | - | - | - |
| 1777726492 | 4.44° C | 35% | 0 hPa | 0 mm | - | - | - |
| 1777725892 | 4.44° C | 41% | 0 hPa | 0 mm | - | - | - |
| 1777725592 | 5° C | 38% | 0 hPa | 0 mm | - | - | - |
| 1777725292 | 6.11° C | 38% | 0 hPa | 0 mm | - | - | - |
| 1777724992 | 5.56° C | 37% | 0 hPa | 0 mm | - | - | - |
| 1777724692 | 5.56° C | 38% | 0 hPa | 0 mm | - | - | - |
| 1777724392 | 6.11° C | 37% | 0 hPa | 0 mm | - | - | - |
| 1777724092 | 5.56° C | 37% | 0 hPa | 0 mm | - | - | - |
| 1777723792 | 6.67° C | 36% | 0 hPa | 0 mm | - | - | - |
| 1777723492 | 6.67° C | 36% | 0 hPa | 0 mm | - | - | - |
| 1777723192 | 6.11° C | 36% | 0 hPa | 0 mm | - | - | - |
| 1777722892 | 5.56° C | 37% | 0 hPa | 0 mm | - | - | - |
| 1777722292 | 6.11° C | 39% | 0 hPa | 0 mm | - | - | - |
| 1777721992 | 5.56° C | 39% | 0 hPa | 0 mm | - | - | - |
| 1777721692 | 5° C | 38% | 0 hPa | 0 mm | - | - | - |
| 1777721392 | 5.56° C | 39% | 0 hPa | 0 mm | - | - | - |
| 1777721092 | 5.56° C | 40% | 0 hPa | 0 mm | - | - | - |
| 1777720792 | 3.89° C | 41% | 0 hPa | 0 mm | - | - | - |
| 1777720492 | 3.89° C | 42% | 0 hPa | 0 mm | - | - | - |
* Rain latest hour (hover to see other rain measurements)
** Current wind speed in m/s (hover to see current wind gust speed)